Location: Peebles
(55.6412°N, 3.1714°W)
Time: 15:50:00
(UTC+01:00)

SeaSat 1 - Pass Details

Date: 26 September 2021
Orbit: 743 x 748 km, 108.0° (Epoch: 17 October)

Event Time Altitude Azimuth Distance (km) Brightness Sun altitude
Exits shadow 20:36:15 14° 146° (SE) 1,983 4.2 -14.1°
Maximum altitude 20:40:29 88° 232° (SW) 756 2.4 -14.7°
Drops below altitude 10° 20:45:28 10° 326° (NW) 2,277 5.8 -15.3°
Sets 20:47:45 0° 327° (NNW) 3,205 6.7 -15.6°
